[Iaude] MPEC K160: 2020 JQ3 [a=1.77,e=0.42,i=8.7,H=22.8]

mpec at marsden.cfa.harvard.edu mpec at marsden.cfa.harvard.edu
Mon May 25 00:14:43 EDT 2020


M.P.E.C. 2020-K160                                 Issued 2020 May 25, 04:13 UT

     The Minor Planet Electronic Circulars contain information on unusual
         minor planets and routine data on comets.  They are published
    on behalf of Division F of the International Astronomical Union by the
          Minor Planet Center, Smithsonian Astrophysical Observatory,
                          Cambridge, MA 02138, U.S.A.

             Prepared using the Tamkin Foundation Computer Network

                              MPC at CFA.HARVARD.EDU
            URL https://www.minorplanetcenter.net/    ISSN 1523-6714

                                    2020 JQ3                                    


Observations:
     K20J03Q  C2020 04 21.55606516 26 46.921+04 02 13.91         21.7 GVEK160F52
     K20J03Q  C2020 04 21.56721716 26 48.264+04 02 37.94         22.1 GVEK160F52
     K20J03Q  C2020 04 21.58941516 26 50.899+04 03 25.33         22.7 GVEK160F52
     K20J03Q  C2020 04 22.52838316 28 52.823+04 37 23.77         21.8 GVEK160F51
     K20J03Q  C2020 04 22.54104316 28 54.344+04 37 51.48         22.1 GVEK160F51
     K20J03Q  C2020 04 22.55411216 28 55.916+04 38 20.58         22.4 GVEK160F51
     K20J03Q* C2020 05 03.56412316 55 02.085+12 22 31.13         22.22wUEK160F51
     K20J03Q  C2020 05 03.57659016 55 03.926+12 23 06.70         21.59wUEK160F51
     K20J03Q  C2020 05 03.60156116 55 07.573+12 24 17.74         21.76wUEK160F51
     K20J03Q  C2020 05 24.43142118 09 15.134+31 44 07.54         21.47wUEK160F51
     K20J03Q  C2020 05 24.45336718 09 21.141+31 45 27.44         21.45wUEK160F51
     K20J03Q  C2020 05 24.46436218 09 24.180+31 46 07.51         21.39wUEK160F51
     K20J03Q bC2020 05 25.03631418 12 12.32 +32 19 51.3          21.3 GVEK160L01
     K20J03Q bC2020 05 25.03867918 12 13.01 +32 19 59.0          21.1 GVEK160L01
     K20J03Q bC2020 05 25.04103918 12 13.74 +32 20 07.2          21.2 GVEK160L01
     K20J03Q bC2020 05 25.04378718 12 14.48 +32 20 16.2          21.4 GVEK160L01

Observer details:
F51 Pan-STARRS 1, Haleakala.  Observers J. Bulger, K. Chambers, T. Lowe, A.
    Schultz, M. Willman.  Measurers S. Chastel, M. Huber, Y. Ramanjooloo, R.
    Wainscoat, R. Weryk, K. Chambers, T. de Boer, L. Denneau, J. Fairlamb, H.
    Flewelling, C.-C. Lin, E. Magnier.  1.8-m Ritchey-Chretien + CCD.
F52 Pan-STARRS 2, Haleakala.  Observers J. Bulger, K. Chambers, T. Dukes, T.
    Lowe, A. Schultz, M. Willman.  Measurers S. Chastel, M. Huber, Y.
    Ramanjooloo, R. Wainscoat, R. Weryk.  1.8-m Ritchey-Chretien + CCD.
L01 Visnjan Observatory, Tican.  Observer K. Korlevic.  1.0-m f/2.9 reflector
    + CCD.

Orbital elements:
2020 JQ3                                                 Earth MOID = 0.0856 AU
Epoch 2020 May 3.0 TT = JDT 2458972.5                   Bell                    
M 332.79435              (2000.0)            P               Q                  
n   0.41757121     Peri.  124.75721     +0.39303143     +0.91901088             
a   1.7727562      Node   168.26643     -0.88532401     +0.38723573             
e   0.4228760      Incl.    8.69581     -0.24845059     +0.07394254             
P   2.36           H   22.85          G   0.15           U   7                  
Residuals in seconds of arc
200421 F52  0.2-  0.2-    200503 F51  0.2-  0.0-    200525 L01  0.4-  0.9+
200421 F52  0.1+  0.0-    200503 F51  0.1+  0.0+    200525 L01  0.2-  0.2+
200421 F52  0.0-  0.1-    200503 F51  0.0-  0.0+    200525 L01  0.6+  0.1-
200422 F51  0.0+  0.1+    200524 F51  0.1+  0.2-    200525 L01  0.1+  0.9-
200422 F51  0.0+  0.1-    200524 F51  0.2-  0.0-
200422 F51  0.0+  0.3+    200524 F51  0.1+  0.2+
Ephemeris:
2020 JQ3                 a,e,i = 1.77, 0.42, 9                   q = 1.0231
Date    TT    R. A. (2000) Decl.     Delta      r    Elong.  Phase     V
2020 04 25    16 34 19.5 +06 11 03   0.3343  1.2787   139.4    30.8    22.3
...
2020 05 10    17 13 21.2 +17 48 48   0.2527  1.1967   133.1    38.0    21.8
...
2020 05 18    17 41 07.6 +25 21 05   0.2219  1.1568   126.3    44.8    21.6
...
2020 05 24    18 07 08.1 +31 18 18   0.2044  1.1293   120.1    50.9    21.6
2020 05 25    18 12 01.1 +32 17 48   0.2019  1.1249   119.1    51.9    21.5
2020 05 26    18 17 04.8 +33 17 00   0.1996  1.1206   118.0    53.0    21.5
...
2020 06 01    18 51 33.7 +38 58 35   0.1881  1.0964   111.3    59.5    21.6
...
2020 06 09    19 49 54.5 +45 17 35   0.1790  1.0686   102.6    68.0    21.7
...
2020 06 24    22 06 08.3 +49 35 54   0.1787  1.0333    90.4    79.6    22.0

M. P. C. Staff               (C) Copyright 2020 MPC           M.P.E.C. 2020-K160




More information about the Iaude mailing list